Location: Mohawk View
(42.7837°N, 73.7885°W)
Time: 13:32:43
(UTC+00:00)

Cosmos 2221 - Pass Details

Date: 17 June 2021
Orbit: 591 x 616 km, 82.5° (Epoch: 30 July)

Event Time Altitude Azimuth Distance (km) Brightness Sun altitude
Rises 07:49:07 0° 331° (NNW) 2,860 6.3 -12.8°
Reaches altitude 10° 07:52:18 10° 306° (NW) 1,945 5.1 -12.4°
Maximum altitude 07:54:27 14° 276° (W) 1,705 4.5 -12.1°
Enters shadow 07:55:44 12° 256° (WSW) 1,787 4.4 -12.0°
